Regional Weather Roundup
Issued by NWS

Home | Current Version | Previous Version | Text Only | Print | Product List | Glossary Off
Versions: 1 2 3 4 5 6 7 8 9 10 11 12 13 14 15 16 17 18 19 20 21 22 23 24 25 26 27 28 29 30 31 32 33 34 35 36 37 38 39 40 41 42 43 44 45 46 47 48 49 50

000
ASUS43 KMKX 222218
RWRWI

WISCONSIN REGIONAL WEATHER ROUNDUP
NATIONAL WEATHER SERVICE MILWAUKEE/SULLIVAN WI
500 PM CDT FRI MAY 22 2015

NOTE: "FAIR" INDICATES FEW OR NO CLOUDS BELOW 12,000 FEET WITH NO
SIGNIFICANT WEATHER AND/OR OBSTRUCTIONS TO VISIBILITY.

WIZ001-002-006>008-014>016-023>028-222300-
NORTHWEST WISCONSIN

CITY           SKY/WX    TMP DP  RH WIND       PRES   REMARKS
SUPERIOR ARPT  SUNNY     54  37  51 NE7       30.18F
ASHLAND        SUNNY     71  33  24 VRB5      30.19F
HAYWARD        SUNNY     71  27  19 MISG      30.19F
SIREN          SUNNY     72  32  23 S6        30.20S
CUMBERLAND     SUNNY     68  30  24 S6        30.21F
RICE LAKE      SUNNY     71  31  22 W5        30.22F
CHETEK         SUNNY     70  33  26 SW3       30.21F
LADYSMITH      SUNNY     70  33  26 CALM      30.22S
EAU CLAIRE     SUNNY     72  32  23 NW3       30.20F
MENOMONIE      SUNNY     72  32  23 N3        30.21F
NEW RICHMOND   SUNNY     71  32  24 S5        30.21S
OSCEOLA        SUNNY     71  33  24 CALM      30.23S
$$

WIZ003>005-009-010-017-018-222300-
NORTH CENTRAL WISCONSIN

CITY           SKY/WX    TMP DP  RH WIND       PRES   REMARKS
MANITOWISH WTR SUNNY     65  27  23 NW8       30.21F
ARBOR VITAE    SUNNY     65  25  21 CALM      30.21S
WOODRUFF       SUNNY     65  25  21 CALM      30.21S
RHINELANDER    SUNNY     68  27  21 W6        30.21S
EAGLE RIVER    SUNNY     67  17  14 W7        30.20F
LAND O LAKES   SUNNY     65  15  14 CALM      30.22S
PHILLIPS       SUNNY     68  33  26 W3        30.20S
TOMAHAWK       SUNNY     67  27  22 CALM      30.20F
MEDFORD        SUNNY     68  33  27 SW6       30.21S
MERRILL        SUNNY     69  32  25 W6        30.21S
$$

WIZ029-030-035-036-043>047-222300-
CENTRAL WISCONSIN

CITY           SKY/WX    TMP DP  RH WIND       PRES   REMARKS
WAUSAU         SUNNY     69  32  25 SW5       30.20S
MOSINEE        NOT AVBL
MARSHFIELD     SUNNY     69  31  24 N5        30.22S
STEVENS POINT  SUNNY     67  33  28 W10       30.22S
WAUPACA        SUNNY     73  26  17 NW7       30.21S
WAUTOMA        SUNNY     74  28  18 NW10      30.21S
WISC RAPIDS    SUNNY     72  30  21 VRB6      30.22S
CAMP DOUGLAS   SUNNY     72  36  26 CALM      30.19F
$$

WIZ011>013-019>022-031-037>040-048>050-222300-
NORTHEAST WISCONSIN

CITY           SKY/WX    TMP DP  RH WIND       PRES   REMARKS
ANTIGO         SUNNY     67  31  26 W6        30.20F
SHAWANO        SUNNY     72  30  21 SW6       30.19F
OCONTO         SUNNY     60  33  36 SE15G21   30.22S
STURGEON BAY   SUNNY     52  27  37 SE10      30.28S
GREEN BAY      SUNNY     71  32  23 VRB7      30.21F
MANITOWOC      SUNNY     52  30  43 SE13      30.28S
APPLETON       MOSUNNY   66  34  30 SE10      30.22S
CLINTONVILLE   SUNNY     70  28  21 W5        30.20F
OSHKOSH        SUNNY     66  37  34 E9        30.22S
$$

WIZ032>034-041-042-053>061-222300-
SOUTHWEST WISCONSIN

CITY           SKY/WX    TMP DP  RH WIND       PRES   REMARKS
LA CROSSE      MOSUNNY   76  34  21 N6        30.18F
SPARTA         SUNNY     73  33  23 W5        30.20F
VIROQUA        MOSUNNY   71  31  23 W5        30.20F
BOSCOBEL       PTSUNNY   76  37  24 VRB5      30.19S
PRAIRIE DU CHI CLOUDY    73  36  25 SW3       30.18S
PLATTEVILLE    CLOUDY    72  36  26 SW10      30.20S
$$

WIZ056-057-062-063-064-067-068-222300-
SOUTH CENTRAL WISCONSIN

CITY           SKY/WX    TMP DP  RH WIND       PRES   REMARKS
REEDSBURG      SUNNY     71  37  28 N5        30.19F
BARABOO/DELLS  SUNNY     72  31  22 CALM      30.20F
LONE ROCK      MOSUNNY   74  34  23 NW3       30.18F
MINERAL POINT  PTSUNNY   73  32  21 W5        30.21S
MADISON        PTSUNNY   72  38  29 CALM      30.20F
MIDDLETON      MOSUNNY   74  26  17 CALM      30.20F
WATERTOWN      SUNNY     70  36  28 CALM      30.21F
MONROE         PTSUNNY   72  34  25 CALM      30.21S
JANESVILLE     SUNNY     73  30  20 CALM        N/A
$$

WIZ051-052-058>065-066-070>072-222300-
SOUTHEAST WISCONSIN

CITY           SKY/WX    TMP DP  RH WIND       PRES   REMARKS
MILWAUKEE      PTSUNNY   56  29  35 E7        30.26F
WAUKESHA       MOSUNNY   64  36  34 SE6       30.24F
MILWAUKEE/TIMM SUNNY     61  19  20 E8        30.26F
RACINE         SUNNY     55  28  35 E10       30.28F
BURLINGTON     SUNNY     64  34  32 SE8       30.23F
KENOSHA        SUNNY     57  28  33 E12       30.25F
FOND DU LAC    SUNNY     69  31  24 SE5       30.22F
SHEBOYGAN      SUNNY     58  25  28 S9G17     30.27S
WEST BEND      SUNNY     61  28  29 E9        30.25S
JUNEAU         SUNNY     68  33  27 CALM      30.23F
$$

LSZ147-162-222300-
LAKE SUPERIOR

STATION/POSITION TIME  TEMP    WIND        PRES    WAVE
                       AIR SEA DIR/SP/G            HT/PER
                 (UTC) (F)     (DEG/KT/KT) (MB)    (FT/S)
W MID LAKE BUOY  2150   39 37  120/  6/  8   N/A     0
DEVILS ISLAND    2200   45      40/  4/  5   N/A
PORT WING        2040   46      30/  8/  9   N/A
SAXON HARBOR     2140   59      60/  6/  7   N/A
$$

LMZ867-665-643>646-222300-
LAKE MICHIGAN

STATION/POSITION TIME  TEMP    WIND        PRES    WAVE
                       AIR SEA DIR/SP/G            HT/PER
                 (UTC) (F)     (DEG/KT/KT) (MB)    (FT/S)
CHAMBERS ISLAND  2100   54     130/ 10/ 16   N/A
N MID LAKE BUOY  2150   39 36  180/  8/  8   N/A     0
NORTHPORT PIER   2000   45     140/ 12/ 15   N/A
SISTER BAY       2132   54     160/ 12/ 16   N/A
KEWAUNEE LAKESHO 2100   44     160/  7/  8   N/A
SHEBOYGAN LAKESH 2200          120/ 11/ 12   N/A
PORT WASHINGTON  2100   48     150/  2/  3   N/A
ATWATER BUOY     2100   45 45  140/  6/  6   N/A
MILWAUKEE LAKESH 2100   46     130/  5/  5   N/A
S MID LAKE BUOY  2150   41 38   40/  6/  8   N/A     0
KENOSHA   LAKESH 2200   51      90/  4/  7   N/A
$$

TC  - TEMPERATURE IN CELSIUS
VSB - VISIBILITY IN STATUTE MILES
WCI - WIND CHILL INDEX
HX  - HEAT INDEX




USA.gov is the U.S. government's official web portal to all federal, state and local government web resources and services.